This is the latest recevied weather packets stored in our database for station/object KF4KUL. If no packets are shown the sender has not sent any weather packets the latest 1 day(s).
| Time | Temp. | Humidity | Pressure | Rain* | Wind** | Luminosity | Snow |
|---|---|---|---|---|---|---|---|
| 1778035749 | 22.22° C | 85% | 1016 hPa | 0 mm | 0 m/s | - | - |
| 1778034848 | 22.22° C | 85% | 1015.7 hPa | 0 mm | 0 m/s | - | - |
| 1778033947 | 22.78° C | 83% | 1015.6 hPa | 0 mm | 0 m/s | - | - |
| 1778033046 | 23.33° C | 81% | 1015.3 hPa | 0 mm | 0 m/s | - | - |
| 1778032145 | 23.33° C | 80% | 1015.3 hPa | 0 mm | 0 m/s | - | - |
| 1778031244 | 23.89° C | 79% | 1015.1 hPa | 0 mm | 0 m/s | - | - |
| 1778030343 | 23.89° C | 78% | 1015 hPa | 0 mm | 0 m/s | - | - |
| 1778029442 | 23.89° C | 77% | 1014.8 hPa | 0 mm | 0 m/s | - | - |
| 1778028541 | 24.44° C | 76% | 1014.8 hPa | 0 mm | 0 m/s | - | - |
| 1778027640 | 25° C | 76% | 1014.6 hPa | 0 mm | 0 m/s | - | - |
| 1778026739 | 25° C | 75% | 1014.4 hPa | 0 mm | 0 m/s | - | - |
| 1778025838 | 25° C | 73% | 1014.4 hPa | 0 mm | 0 m/s | - | - |
| 1778024937 | 25° C | 72% | 1014.3 hPa | 0 mm | 0 m/s | - | - |
| 1778024036 | 25.56° C | 71% | 1014.2 hPa | 0 mm | 0.89 m/s, 13° | - | - |
| 1778023135 | 26.11° C | 69% | 1014.2 hPa | 0 mm | 0.45 m/s, 359° | - | - |
| 1778022234 | 26.67° C | 67% | 1014.1 hPa | 0 mm | 0 m/s | - | - |
| 1778021333 | 26.67° C | 66% | 1014.4 hPa | 0 mm | 1.79 m/s, 352° | - | - |
| 1778020432 | 26.67° C | 65% | 1014.4 hPa | 0 mm | 0.89 m/s, 322° | - | - |
| 1778019531 | 26.67° C | 64% | 1014.5 hPa | 0 mm | 2.24 m/s, 339° | - | - |
| 1778018630 | 26.67° C | 63% | 1014.5 hPa | 0 mm | 0.45 m/s, 343° | - | - |
| 1778017729 | 27.78° C | 62% | 1014.4 hPa | 0 mm | 2.24 m/s, 291° | - | - |
| 1778016828 | 27.22° C | 62% | 1014.4 hPa | 0 mm | 2.24 m/s, 357° | - | - |
| 1778015927 | 27.78° C | 62% | 1014.4 hPa | 0 mm | 3.13 m/s, 3° | - | - |
| 1778015026 | 27.78° C | 62% | 1014.3 hPa | 0 mm | 2.24 m/s, 274° | - | - |
| 1778014125 | 28.33° C | 59% | 1014.3 hPa | 0 mm | 1.34 m/s, 10° | - | - |
* Rain latest hour (hover to see other rain measurements)
** Current wind speed in m/s (hover to see current wind gust speed)